Jonesville, VA

3:06 AM EDT on June 29, 2017 (GMT -0400)
Jonesville

Weather History for K0VG - January, 2013

Change the Weather History Date:

Monday, January 28, 2013

  Actual Average (KLNP) Record (KLNP)
Temperature  
Mean Temperature 42 °F -  
Max Temperature 48 °F 39 °F 62 °F (1999)
Min Temperature 37 °F 24 °F 1 °F (2000)
Degree Days  
Heating Degree Days 22    
Moisture  
Dew Point 40 °F    
Average Humidity 94    
Maximum Humidity 100    
Minimum Humidity 71    
Precipitation  
Precipitation 0.09 in - - ()
Sea Level Pressure  
Sea Level Pressure 30.31 in    
Wind  
Wind Speed 0 mph (East)    
Max Wind Speed 4 mph    
Max Gust Speed -    
Visibility 5 miles    
Events Fog , Rain    
Averages and records for this station are not official NWS values.
T = Trace of Precipitation, MM = Missing Value Source: NWS Daily Summary

Daily Weather History Graph

Daily Weather History Graph

Search for Another Location

Airport or City:

Trip Planner

Search our weather history database for the weather conditions in past years. The results will help you decide how hot, cold, wet, or windy it might be!

Date:

Astronomy

Jan. 28, 2013 Rise Set
Actual Time 7:37 AM EST 5:54 PM EST
Civil Twilight 7:10 AM EST 6:22 PM EST
Nautical Twilight 6:39 AM EST 6:53 PM EST
Astronomical Twilight 6:08 AM EST 7:23 PM EST
Moon 7:43 PM EST (1/28) 8:06 AM EST (1/28)
Length of Visible Light 11h 11m
Length of Day
10h 17m
Full, 98% of the Moon is Illuminated
Jan 28
Full
Feb 3
Last Quarter
Feb 10
New
Feb 17
First Quarter
Feb 25
Full

Hourly Weather History & Observations

Time (EST) Temp. Windchill Dew Point Humidity Pressure Visibility Wind Dir Wind Speed Gust Speed Precip Events Conditions
12:15 AM 37.4 °F - 37.4 °F 100% 30.34 in 3.0 mi Calm Calm - N/A   Overcast
12:35 AM 37.4 °F - 37.4 °F 100% 30.34 in 2.5 mi Calm Calm - N/A Rain Light Rain
12:55 AM 37.4 °F - 37.4 °F 100% 30.34 in 2.5 mi Calm Calm - N/A   Overcast
1:15 AM 37.4 °F - 37.4 °F 100% 30.34 in 5.0 mi Calm Calm - N/A   Overcast
1:35 AM 37.4 °F - 37.4 °F 100% 30.34 in 3.0 mi Calm Calm - N/A   Overcast
1:55 AM 37.4 °F - 37.4 °F 100% 30.34 in 5.0 mi Calm Calm - N/A   Overcast
2:15 AM 37.4 °F - 37.4 °F 100% 30.34 in 5.0 mi Calm Calm - N/A   Overcast
2:35 AM 37.4 °F - 37.4 °F 100% 30.34 in 2.5 mi Calm Calm - N/A   Overcast
2:55 AM 37.4 °F - 37.4 °F 100% 30.34 in 3.0 mi Calm Calm - N/A   Overcast
3:15 AM 37.4 °F - 37.4 °F 100% 30.35 in 2.5 mi Calm Calm - N/A   Overcast
3:55 AM 37.4 °F - 37.4 °F 100% 30.34 in 2.5 mi Calm Calm - N/A   Overcast
4:15 AM 37.4 °F - 37.4 °F 100% 30.34 in 1.8 mi Calm Calm - N/A   Overcast
4:35 AM 37.4 °F - 37.4 °F 100% 30.35 in 2.5 mi Calm Calm - N/A   Overcast
4:55 AM 37.4 °F - 37.4 °F 100% 30.35 in 1.0 mi Calm Calm - N/A   Overcast
5:15 AM 37.4 °F - 37.4 °F 100% 30.35 in 0.2 mi Calm Calm - N/A Fog Fog
5:35 AM 37.4 °F - 37.4 °F 100% 30.36 in 0.5 mi Calm Calm - N/A Fog Fog
5:55 AM 37.4 °F - 37.4 °F 100% 30.36 in 1.2 mi Calm Calm - N/A   Overcast
6:15 AM 37.4 °F - 37.4 °F 100% 30.36 in 2.5 mi Calm Calm - N/A   Overcast
6:35 AM 37.4 °F - 37.4 °F 100% 30.36 in 2.0 mi Calm Calm - N/A   Overcast
6:55 AM 37.4 °F - 37.4 °F 100% 30.36 in 2.5 mi Calm Calm - N/A   Overcast
7:15 AM 37.4 °F - 37.4 °F 100% 30.37 in 3.0 mi Calm Calm - N/A   Overcast
7:35 AM 37.4 °F - 37.4 °F 100% 30.37 in 3.0 mi Calm Calm - N/A   Overcast
7:55 AM 37.4 °F - 37.4 °F 100% 30.37 in 3.0 mi Calm Calm - N/A   Overcast
8:15 AM 37.4 °F - 37.4 °F 100% 30.37 in 2.5 mi Calm Calm - N/A   Overcast
8:35 AM 39.2 °F - 39.2 °F 100% 30.37 in 4.0 mi Calm Calm - N/A   Overcast
8:55 AM 39.2 °F - 39.2 °F 100% 30.37 in 4.0 mi Calm Calm - N/A   Overcast
9:15 AM 39.2 °F - 39.2 °F 100% 30.37 in 5.0 mi Calm Calm - N/A   Overcast
9:35 AM 41.0 °F - 39.2 °F 93% 30.36 in 6.0 mi Calm Calm - N/A   Overcast
9:55 AM 41.0 °F - 39.2 °F 93% 30.36 in 7.0 mi Calm Calm - N/A   Overcast
10:15 AM 41.0 °F - 39.2 °F 93% 30.36 in 8.0 mi Calm Calm - N/A   Overcast
10:35 AM 41.0 °F - 39.2 °F 93% 30.36 in 9.0 mi Calm Calm - N/A   Overcast
10:55 AM 42.8 °F - 39.2 °F 87% 30.36 in 10.0 mi Calm Calm - N/A   Overcast
11:15 AM 44.6 °F - 37.4 °F 76% 30.35 in 10.0 mi Calm Calm - N/A   Overcast
11:35 AM 44.6 °F - 37.4 °F 76% 30.34 in 10.0 mi Calm Calm - N/A   Overcast
11:55 AM 44.6 °F - 37.4 °F 76% 30.34 in 10.0 mi Calm Calm - N/A   Overcast
12:15 PM 44.6 °F - 35.6 °F 71% 30.33 in 10.0 mi Calm Calm - N/A   Overcast
12:35 PM 44.6 °F - 37.4 °F 76% 30.32 in 10.0 mi Calm Calm - N/A   Overcast
12:55 PM 44.6 °F - 37.4 °F 76% 30.30 in 10.0 mi Calm Calm - N/A   Overcast
1:15 PM 46.4 °F - 37.4 °F 71% 30.29 in 10.0 mi Calm Calm - N/A   Overcast
1:35 PM 46.4 °F - 37.4 °F 71% 30.28 in 10.0 mi Calm Calm - N/A   Overcast
1:55 PM 46.4 °F - 39.2 °F 76% 30.28 in 10.0 mi Calm Calm - N/A   Overcast
2:15 PM 46.4 °F - 39.2 °F 76% 30.27 in 10.0 mi Calm Calm - N/A   Overcast
2:35 PM 46.4 °F - 41.0 °F 81% 30.27 in 10.0 mi Calm Calm - N/A   Overcast
2:55 PM 46.4 °F - 41.0 °F 81% 30.26 in 9.0 mi Calm Calm - N/A   Overcast
3:15 PM 46.4 °F - 41.0 °F 81% 30.26 in 10.0 mi Calm Calm - N/A   Overcast
3:35 PM 48.2 °F - 41.0 °F 76% 30.26 in 10.0 mi Calm Calm - N/A   Overcast
3:55 PM 48.2 °F - 41.0 °F 76% 30.25 in 10.0 mi Calm Calm - N/A   Overcast
4:15 PM 48.2 °F - 42.8 °F 82% 30.26 in 10.0 mi Calm Calm - N/A   Overcast
4:35 PM 48.2 °F - 44.6 °F 87% 30.25 in 3.0 mi Calm Calm - 0.01 in Rain Light Rain
4:55 PM 46.4 °F - 46.4 °F 100% 30.25 in 8.0 mi Calm Calm - 0.01 in   Overcast
5:15 PM 46.4 °F - 46.4 °F 100% 30.25 in 6.0 mi Calm Calm - N/A   Overcast
5:35 PM 46.4 °F 45.2 °F 46.4 °F 100% 30.25 in 5.0 mi East 3.5 mph - N/A   Overcast
6:15 PM 46.4 °F - 46.4 °F 100% 30.25 in 3.0 mi Calm Calm - N/A Rain Light Rain
6:35 PM 46.4 °F - 46.4 °F 100% 30.26 in 5.0 mi Calm Calm - 0.01 in Rain Light Rain
6:55 PM 44.6 °F - 44.6 °F 100% 30.26 in 1.2 mi Calm Calm - 0.04 in Rain Light Rain
7:15 PM 44.6 °F - 44.6 °F 100% 30.26 in 3.0 mi Calm Calm - N/A Rain Light Rain
7:35 PM 44.6 °F - 44.6 °F 100% 30.26 in 4.0 mi Calm Calm - N/A   Overcast
7:55 PM 44.6 °F - 44.6 °F 100% 30.26 in 3.0 mi Calm Calm - N/A   Overcast
8:15 PM 44.6 °F - 44.6 °F 100% 30.26 in 3.0 mi Calm Calm - N/A   Overcast
8:35 PM 44.6 °F - 44.6 °F 100% 30.26 in 3.0 mi Calm Calm - N/A   Overcast
8:55 PM 44.6 °F - 44.6 °F 100% 30.26 in 1.5 mi Calm Calm - N/A   Overcast
9:15 PM 44.6 °F - 44.6 °F 100% 30.26 in 2.0 mi Calm Calm - N/A Rain Light Rain
9:35 PM 44.6 °F - 44.6 °F 100% 30.26 in 3.0 mi Calm Calm - 0.02 in Rain Light Rain
9:55 PM 44.6 °F - 44.6 °F 100% 30.26 in 2.5 mi Calm Calm - 0.04 in Rain Light Rain
10:15 PM 44.6 °F - 44.6 °F 100% 30.26 in 2.5 mi Calm Calm - N/A   Overcast
10:35 PM 44.6 °F - 44.6 °F 100% 30.26 in 2.5 mi Calm Calm - N/A   Overcast
10:55 PM 44.6 °F - 44.6 °F 100% 30.26 in 2.5 mi Calm Calm - N/A   Overcast
11:15 PM 44.6 °F - 44.6 °F 100% 30.25 in 1.5 mi Calm Calm - N/A Rain Light Rain
11:35 PM 44.6 °F - 44.6 °F 100% 30.26 in 1.8 mi Calm Calm - N/A   Overcast
11:55 PM 44.6 °F - 44.6 °F 100% 30.26 in 1.2 mi Calm Calm - N/A   Overcast